Flag Weather past 2 weeks in Laatzen, Lower Saxony, Germany

Now
35 °F

Passing clouds.


Feels Like: 30 °F
Forecast: 31 / 36 °F
Wind: 7 mph from East

Location: Hannover

Current Time: Nov 28, 2014 at 3:06:26 AM

Latest Report: Nov 28, 2014 at 2:00 AM


Visibility: 5 mi

Pressure: 29.93 "Hg

Humidity: 82%

Dew point: 30 °F

Location of LaatzenLocation

Historic Weather in Laatzen — Graph

°F

Laatzen temperature yesterday

Maximum temperature yesterday: 40 °F (at 2:00 PM)
Minimum temperature yesterday: 32 °F (at 8:00 AM)
Average temperature yesterday: 36 °F

Past Weeks' High & Low Weather Summary

 TemperatureHumidityPressure
High56 °F (Nov 23, 3:00 PM)100% (Nov 13, 3:00 AM)30.39 "Hg (Nov 13, 3:00 AM)
Low30 °F (Nov 21, 8:00 AM)60% (Nov 23, 3:00 PM)29.53 "Hg (Nov 16, 3:00 PM)
Average44 °F87%30.03 "Hg
* Reported Nov 13 2:00 AM — Nov 28 2:00 AM, Laatzen, Weather by CustomWeather, © 2014

Note: Actual official high and low records may vary slightly from our data, if they occured in-between our weather recording intervals... More about our weather records

Advertising

Laatzen weather history for previous 24 hours

 ConditionsComfort  
Time TempWeatherWind HumidityBarometerVisibility
2:00 AM
Nov 28
35 °FPassing clouds.7 mph82%29.93 "Hg5 mi
1:00 AM36 °FPassing clouds.7 mph80%29.92 "Hg5 mi
12:00 AM36 °FPassing clouds.7 mph80%29.93 "Hg6 mi
11:00 PM
Nov 27
36 °FPassing clouds.6 mph80%29.93 "Hg6 mi
9:00 PM35 °FPassing clouds.5 mph86%29.92 "Hg6 mi
8:00 PM35 °FPassing clouds.5 mph88%29.91 "Hg6 mi
7:00 PM36 °FPassing clouds.5 mph85%29.90 "Hg6 mi
6:00 PM37 °FPassing clouds.6 mph82%29.90 "Hg6 mi
5:00 PM38 °FPassing clouds.6 mph80%29.90 "Hg6 mi
4:00 PM38 °FPartly sunny.6 mph77%29.90 "Hg6 mi
3:00 PM39 °FPartly sunny.6 mph75%29.89 "Hg6 mi
2:00 PM40 °FPartly sunny.7 mph76%29.90 "Hg6 mi
1:00 PM39 °FPartly sunny.7 mph76%29.92 "Hg6 mi
12:00 PM37 °FScattered clouds.6 mph81%29.92 "Hg5 mi
11:00 AM36 °FFog.6 mph83%29.93 "Hg4 mi
9:00 AM33 °FFog.5 mph90%29.95 "Hg3 mi
8:00 AM32 °FFog.6 mph91%29.95 "Hg2 mi
7:00 AM33 °FPassing clouds.5 mph90%29.95 "Hg5 mi
6:00 AM33 °FPassing clouds.5 mph91%29.96 "Hg6 mi
5:00 AM33 °FPassing clouds.5 mph89%29.96 "Hg6 mi
3:00 AM34 °FPassing clouds.5 mph87%29.98 "Hg6 mi
Weather by CustomWeather, © 2014

See weather overviewHow to use our weather pages